Regional Weather Roundup
Issued by NWS Cleveland, OH

Home | Current Version | Previous Version | Graphics & Text | Print | Product List | Glossary On
Versions: 1 2 3 4 5 6 7 8 9 10 11 12 13 14 15 16 17 18 19 20 21 22 23 24 25 26 27 28 29 30 31 32 33 34 35 36 37 38 39 40 41 42 43 44 45 46 47 48 49 50
000
ASUS41 KCLE 281402
RWRCLE
OHIO REGIONAL WEATHER ROUNDUP
NATIONAL WEATHER SERVICE CLEVELAND, OH
900 AM EST SUN DEC 28 2014

NOTE: "FAIR" INDICATES FEW OR NO CLOUDS BELOW 12,000 FEET WITH NO
SIGNIFICANT WEATHER AND/OR OBSTRUCTIONS TO VISIBILITY.

OHZ001>008-015>018-024>027-034-035-043-044-281500-
   NORTHWEST OHIO

CITY           SKY/WX    TMP DP  RH WIND       PRES   REMARKS
DEFIANCE       CLOUDY    35  29  78 W5        30.11R
FINDLAY        CLOUDY    35  30  82 W7        30.09R WCI  29
TOLEDO EXPRESS CLOUDY    34  30  85 W7        30.09R WCI  28
TOLEDO EXEC    CLOUDY    36  30  79 W8        30.10R
LIMA           CLOUDY    35  30  82 W9        30.10R WCI  28
$$

OHZ009>014-019>023-028>033-038-089-281500-
   NORTHEAST OHIO

CITY           SKY/WX    TMP DP  RH WIND       PRES   REMARKS
CLE-HOPKINS    CLOUDY    36  31  82 W8        30.09R
CLE-LAKEFRONT  CLOUDY    37  33  85 W14       30.07R
CUY CO. ARPT   CLOUDY    37  36  93 W12       30.06R
LORAIN-ELYRIA  CLOUDY    35  32  88 NW8       30.08R WCI  29
ASHTABULA      CLOUDY    36  33  89 W6        30.05R
AKRON-CANTON   CLOUDY    36  32  85 NW7       30.05R FOG
WOOSTER        CLOUDY    35  32  88 NW7       30.06S WCI  29
MANSFIELD      MOCLDY    33  32  96 W6        30.06R WCI  28
YOUNGSTOWN     CLOUDY    35  34  96 W7        30.03R FOG     WCI  29
$$

OHZ042-051>053-060>062-070>072-077>081-281500-
  SOUTHWEST OHIO

CITY           SKY/WX    TMP DP  RH WIND       PRES   REMARKS
CINC-COVINGTON CLOUDY    36  31  82 NW9       30.13R
CINC-LUNKEN    CLOUDY    36  34  92 N9        30.15R
HAMILTON       CLOUDY    35  33  92 NW6       30.15R
DAYTON         CLOUDY    34  30  85 NW7       30.12S WCI  28
WRIGHT-PAT AFB NOT AVBL
DAYTON GENERAL CLOUDY    34  31  88 NW9       30.11R WCI  27
WILMINGTON     CLOUDY    34  31  88 N10       30.10R FOG     WCI  26
$$

OHZ036-037-039>041-045>050-054>059-063>069-073>076-082>088-281500-
  CENTRAL AND SOUTHEAST OHIO

CITY           SKY/WX    TMP DP  RH WIND       PRES   REMARKS
COLUMBUS       CLOUDY    35  35 100 NW9       30.08R FOG     WCI  28
OSU AIRPORT    CLOUDY    35  31  85 NW10      30.08S WCI  27
BOLTON FIELD   CLOUDY    36  34  93 N9        30.09R FOG
RICKENBACK AFB CLOUDY    35  33  90 NW8       30.09S FOG     WCI  29
NEWARK         CLOUDY    37  34  89 NW7       30.07S FOG
MARION         MOCLDY    34  30  85 NW7       30.08S WCI  28
LANCASTER      CLOUDY    37  35  92 NW7       30.09S FOG
ZANESVILLE     CLOUDY    36  33  89 NW8       30.07R
NEW PHILLY     CLOUDY    37  34  89 NW6       30.07R
$$



USA.gov is the U.S. government's official web portal to all federal, state and local government web resources and services.